Hourly Weather Natalinka

Today, 12 July, Sunday

Time Temperature Precipitation Wind Pressure Humidity
00:00 +18°C° 0 mm 2 mps 749 mmHg 87%
01:00 +17°C° 0 mm 2 mps 749 mmHg 87%
02:00 +17°C° 0 mm 2 mps 748 mmHg 87%
03:00 +17°C° 0 mm 2 mps 748 mmHg 85%
04:00 +17°C° 0 mm 2 mps 748 mmHg 85%
05:00 +17°C° 0 mm 2 mps 748 mmHg 85%
06:00 +18°C° 0 mm 2 mps 748 mmHg 85%
07:00 +19°C° 0 mm 2 mps 748 mmHg 81%
08:00 +21°C° 0 mm 2 mps 748 mmHg 77%
09:00 +24°C° 0 mm 3 mps 748 mmHg 73%
10:00 +24°C° 0 mm 3 mps 748 mmHg 69%
11:00 +25°C° 0 mm 3 mps 747 mmHg 66%
12:00 +26°C° 0 mm 3 mps 747 mmHg 62%
13:00 +26°C° 0 mm 3 mps 747 mmHg 62%
14:00 +27°C° 0 mm 3 mps 746 mmHg 61%
15:00 +28°C° 0 mm 2 mps 746 mmHg 59%
16:00 +27°C° 0 mm 2 mps 746 mmHg 62%
17:00 +27°C° 0 mm 1 mps 745 mmHg 64%
18:00 +27°C° 0 mm 1 mps 745 mmHg 67%
19:00 +25°C° 0 mm 1 mps 745 mmHg 70%
20:00 +23°C° 0 mm 1 mps 745 mmHg 73%
21:00 +21°C° 0 mm 1 mps 745 mmHg 76%
22:00 +21°C° 0 mm 1 mps 745 mmHg 78%
23:00 +20°C° 0 mm 1 mps 744 mmHg 79%

Tomorrow, 13 July, Monday

Time Temperature Precipitation Wind Pressure Humidity
00:00 +20°C° 0 mm 1 mps 744 mmHg 80%
01:00 +19°C° 0 mm 1 mps 744 mmHg 82%
02:00 +19°C° 0 mm 1 mps 744 mmHg 83%
03:00 +18°C° 0 mm 1 mps 744 mmHg 84%
04:00 +19°C° 0 mm 1 mps 743 mmHg 85%
05:00 +19°C° 0 mm 1 mps 743 mmHg 86%
06:00 +19°C° 0 mm 1 mps 742 mmHg 87%
07:00 +20°C° 0 mm 2 mps 742 mmHg 83%
08:00 +21°C° 0 mm 2 mps 743 mmHg 78%
09:00 +24°C° 0 mm 2 mps 743 mmHg 74%
10:00 +24°C° 0 mm 2 mps 742 mmHg 73%
11:00 +25°C° 0 mm 2 mps 742 mmHg 72%
12:00 +25°C° 0 mm 3 mps 742 mmHg 72%
13:00 +24°C° 0.2 mm 3 mps 742 mmHg 76%
14:00 +22°C° 0.2 mm 3 mps 741 mmHg 79%
15:00 +21°C° 0.2 mm 3 mps 741 mmHg 83%
16:00 +23°C° 0 mm 2 mps 741 mmHg 82%
17:00 +23°C° 0 mm 2 mps 741 mmHg 82%
18:00 +23°C° 0 mm 1 mps 740 mmHg 81%
19:00 +22°C° 0.1 mm 1 mps 740 mmHg 85%
20:00 +21°C° 0.1 mm 1 mps 741 mmHg 88%
21:00 +20°C° 0.1 mm 1 mps 741 mmHg 91%
22:00 +19°C° 0.1 mm 2 mps 740 mmHg 92%
23:00 +19°C° 0.1 mm 2 mps 740 mmHg 92%

Day after tomorrow, 14 July, Tuesday

Time Temperature Precipitation Wind Pressure Humidity
00:00 +18°C° 0.1 mm 2 mps 740 mmHg 92%
01:00 +18°C° 0.5 mm 3 mps 740 mmHg 94%
02:00 +18°C° 0.5 mm 3 mps 740 mmHg 95%
03:00 +18°C° 0.5 mm 3 mps 739 mmHg 97%
04:00 +19°C° 0 mm 4 mps 739 mmHg 97%
05:00 +19°C° 0 mm 4 mps 738 mmHg 97%
06:00 +19°C° 0 mm 4 mps 738 mmHg 96%
07:00 +19°C° 0.3 mm 3 mps 738 mmHg 95%
08:00 +19°C° 0.3 mm 2 mps 738 mmHg 94%
09:00 +19°C° 0.3 mm 2 mps 739 mmHg 93%
10:00 +20°C° 0.3 mm 2 mps 738 mmHg 92%
11:00 +20°C° 0.3 mm 2 mps 738 mmHg 92%
12:00 +20°C° 0.3 mm 3 mps 738 mmHg 91%
13:00 +20°C° 1.1 mm 3 mps 738 mmHg 92%
14:00 +20°C° 1.1 mm 4 mps 738 mmHg 94%
15:00 +20°C° 1.1 mm 4 mps 737 mmHg 95%
16:00 +20°C° 1.5 mm 4 mps 737 mmHg 95%
17:00 +20°C° 1.5 mm 3 mps 737 mmHg 96%
18:00 +19°C° 1.5 mm 3 mps 736 mmHg 96%
19:00 +19°C° 0.1 mm 2 mps 736 mmHg 96%
20:00 +19°C° 0.1 mm 2 mps 736 mmHg 96%
21:00 +18°C° 0.1 mm 2 mps 735 mmHg 97%
22:00 +18°C° 0 mm 2 mps 735 mmHg 97%
23:00 +18°C° 0 mm 2 mps 735 mmHg 97%

15 July, Wednesday

Time Temperature Precipitation Wind Pressure Humidity
00:00 +18°C° 0 mm 2 mps 735 mmHg 98%
01:00 +17°C° 0 mm 2 mps 735 mmHg 97%
02:00 +17°C° 0 mm 3 mps 735 mmHg 97%
03:00 +17°C° 0 mm 3 mps 735 mmHg 97%
04:00 +17°C° 0 mm 4 mps 735 mmHg 97%
05:00 +18°C° 0 mm 4 mps 735 mmHg 96%
06:00 +17°C° 0 mm 5 mps 735 mmHg 95%
07:00 +17°C° 0.1 mm 5 mps 735 mmHg 95%
08:00 +16°C° 0.1 mm 5 mps 735 mmHg 95%
09:00 +16°C° 0.1 mm 5 mps 735 mmHg 95%
10:00 +17°C° 0.4 mm 5 mps 735 mmHg 92%
11:00 +17°C° 0.4 mm 5 mps 735 mmHg 90%
12:00 +19°C° 0.4 mm 6 mps 735 mmHg 88%
13:00 +19°C° 0.6 mm 5 mps 735 mmHg 85%
14:00 +20°C° 0.6 mm 5 mps 735 mmHg 83%
15:00 +20°C° 0.6 mm 4 mps 736 mmHg 81%
16:00 +19°C° 1 mm 5 mps 736 mmHg 83%
17:00 +19°C° 1 mm 5 mps 736 mmHg 86%
18:00 +17°C° 1 mm 5 mps 736 mmHg 89%
19:00 +16°C° 0.1 mm 5 mps 736 mmHg 90%
20:00 +15°C° 0.1 mm 5 mps 736 mmHg 92%
21:00 +13°C° 0.1 mm 5 mps 736 mmHg 93%
22:00 +14°C° 0 mm 5 mps 736 mmHg 93%
23:00 +14°C° 0 mm 5 mps 736 mmHg 93%

16 July, Thursday

Time Temperature Precipitation Wind Pressure Humidity
00:00 +14°C° 0 mm 5 mps 736 mmHg 94%
01:00 +14°C° 0 mm 5 mps 737 mmHg 93%
02:00 +14°C° 0 mm 5 mps 737 mmHg 93%
03:00 +15°C° 0 mm 5 mps 737 mmHg 92%
04:00 +14°C° 0 mm 5 mps 737 mmHg 92%
05:00 +14°C° 0 mm 6 mps 737 mmHg 92%
06:00 +14°C° 0 mm 6 mps 737 mmHg 92%
07:00 +14°C° 0 mm 6 mps 738 mmHg 92%
08:00 +14°C° 0 mm 6 mps 738 mmHg 92%
09:00 +14°C° 0 mm 6 mps 738 mmHg 92%
10:00 +14°C° 0 mm 6 mps 739 mmHg 90%
11:00 +14°C° 0 mm 6 mps 739 mmHg 89%
12:00 +15°C° 0 mm 6 mps 739 mmHg 88%
13:00 +15°C° 0 mm 6 mps 739 mmHg 88%
14:00 +15°C° 0 mm 6 mps 740 mmHg 88%
15:00 +15°C° 0 mm 6 mps 740 mmHg 87%
16:00 +15°C° 0 mm 6 mps 740 mmHg 87%
17:00 +15°C° 0 mm 5 mps 740 mmHg 87%
18:00 +15°C° 0 mm 5 mps 740 mmHg 87%
19:00 +15°C° 0 mm 5 mps 740 mmHg 87%
20:00 +15°C° 0 mm 4 mps 740 mmHg 88%
21:00 +15°C° 0 mm 4 mps 740 mmHg 88%
22:00 +14°C° 0 mm 4 mps 740 mmHg 90%
23:00 +13°C° 0 mm 4 mps 740 mmHg 92%

17 July, Friday

Time Temperature Precipitation Wind Pressure Humidity
00:00 +13°C° 0 mm 4 mps 740 mmHg 94%
01:00 +13°C° 0 mm 4 mps 740 mmHg 93%
02:00 +13°C° 0 mm 4 mps 740 mmHg 92%
03:00 +13°C° 0 mm 4 mps 740 mmHg 91%
04:00 +14°C° 0 mm 4 mps 740 mmHg 91%
05:00 +14°C° 0 mm 4 mps 740 mmHg 92%
06:00 +14°C° 0 mm 4 mps 740 mmHg 92%
07:00 +14°C° 0.1 mm 4 mps 740 mmHg 92%
08:00 +14°C° 0.1 mm 4 mps 740 mmHg 91%
09:00 +14°C° 0.1 mm 4 mps 741 mmHg 91%
10:00 +15°C° 0 mm 5 mps 741 mmHg 90%
11:00 +15°C° 0 mm 5 mps 741 mmHg 88%
12:00 +16°C° 0 mm 5 mps 741 mmHg 87%
13:00 +17°C° 0 mm 5 mps 741 mmHg 85%
14:00 +17°C° 0 mm 5 mps 742 mmHg 82%
15:00 +19°C° 0 mm 5 mps 742 mmHg 80%
16:00 +19°C° 0.1 mm 4 mps 742 mmHg 81%
17:00 +19°C° 0.1 mm 4 mps 742 mmHg 82%
18:00 +19°C° 0.1 mm 3 mps 742 mmHg 82%
19:00 +18°C° 0 mm 3 mps 742 mmHg 85%
20:00 +17°C° 0 mm 2 mps 742 mmHg 89%
21:00 +16°C° 0 mm 2 mps 742 mmHg 92%
22:00 +16°C° 0 mm 2 mps 742 mmHg 92%
23:00 +15°C° 0 mm 2 mps 743 mmHg 93%
Show more